Location: Duncanville
(32.6518°N, 96.9083°W)
Time: 06:44:16
(UTC+00:00)

Daily predictions for brighter satellites

Satellite Brightness Start Highest point End
(mag) Time Altitude Azimuth Time Altitude Azimuth Time Altitude Azimuth
Cosmos 1812 3.2 12:03:56 10° SSE 12:06:11 35° E 12:08:27 10° NNE
IUS-17 SRM-1 4.4 12:04:37 21° WSW 12:07:07 56° S 12:21:58 10° ESE
Cosmos 1025 Rocket 3.0 12:04:10 10° N 12:08:32 87° E 12:12:51 10° S
Cosmos 1777 Rocket 4.3 12:06:07 10° SW 12:10:57 40° WNW 12:15:48 10° N
Cosmos 2297 Rocket 3.0 12:09:41 16° NW 12:13:10 29° WSW 12:17:57 10° SSW
ISS -3.3 12:13:12 10° SW 12:16:30 61° SE 12:19:48 10° NE
OAO 2 Rocket 3.5 12:13:18 20° W 12:16:52 65° SSW 12:22:03 10° ESE
Cosmos 1300 Rocket 3.7 12:12:43 10° S 12:17:05 78° E 12:21:28 10° N
COSMOS 2455 3.6 12:12:53 13° WSW 12:17:20 30° WNW 12:22:35 10° N
Cosmos 2208 Rocket 4.0 12:11:57 10° NNW 12:17:23 78° WSW 12:22:47 10° S
Cosmos 2084 3.3 12:15:33 12° NW 12:19:08 59° WSW 12:23:05 10° SSE
Cosmos 2219 4.5 12:19:29 10° N 12:24:53 42° ENE 12:30:12 10° SE
Cosmos 1674 Rocket 3.9 12:23:11 10° NNW 12:27:19 40° W 12:31:24 10° SSW
IGS 5A 3.4 12:25:02 10° N 12:28:54 55° WNW 12:32:46 10° SSW
MOS 1 Rocket 3.8 12:25:16 10° NNE 12:29:35 59° E 12:34:05 10° S
Cosmos 773 Rocket 4.2 12:25:25 10° NNW 12:30:28 51° WSW 12:35:27 10° S
CBERS-1 4.2 12:27:21 10° NNE 12:32:28 79° ESE 12:37:34 10° S
Cosmos 1869 2.9 12:31:11 10° S 12:34:44 88° W 12:38:18 10° N
COSMO-SKYMED 1 2.7 12:32:31 10° S 12:36:26 45° W 12:40:23 10° NNW
Cosmos 1354 Rocket 4.3 12:32:03 10° SW 12:36:59 42° WNW 12:41:56 10° N
Helios 1A Rocket 3.1 12:37:17 10° SSE 12:40:30 56° ENE 12:43:42 10° N
Cosmos 2263 Rocket 2.2 12:39:56 10° NNW 12:45:34 74° WSW 12:51:09 10° SSE
Cosmos 1898 Rocket 4.2 12:41:23 10° S 12:46:33 61° ESE 12:51:46 10° NNE
Cosmos 2369 4.0 12:41:40 10° SW 12:47:02 43° WNW 12:52:25 10° N
Cosmos 372 Rocket 4.0 12:47:03 10° SSW 12:52:06 87° WNW 12:57:13 10° NNE
